DW8522 Weather Reports


Display with metric or nautical units.
time (UTC)temp
F
wind
direction
speed
MPH
gust
MPH
rain 1hr
in
rain 24hr
in
rain mn
in
humidity
%
barometer
mb
20260502151509 51 152 2.0 4.0 0.00 0.00 0.00 88 1034.5
20260502140103 50 146 1.0 4.0 0.00 0.00 0.00 89 1034.6
20260502123045 49 149 1.0 4.0 0.00 0.00 0.00 90 1034.5
20260502121542 49 150 0.0 2.0 0.00 0.00 0.00 90 1034.4
20260502114531 50 146 2.0 5.0 0.00 0.00 0.00 89 1034.4
20260502113030 50 151 2.0 5.0 0.00 0.00 0.00 89 1034.4
20260502111536 50 149 2.0 4.0 0.00 0.00 0.00 89 1034.3
20260502110034 51 146 1.0 4.0 0.00 0.00 0.00 89 1034.3
20260502104529 51 155 1.0 6.0 0.00 0.00 0.00 89 1034.4
20260502103027 51 146 1.0 3.0 0.00 0.00 0.00 89 1034.3
20260502101527 51 152 2.0 5.0 0.00 0.00 0.00 89 1034.1
20260502091524 52 146 0.0 3.0 0.00 0.00 0.00 89 1033.8
20260502071520 54 111 0.0 0.0 0.00 0.00 0.00 85 1033.1
20260502070023 55 111 0.0 0.0 0.00 0.00 0.00 84 1033.1
20260502064518 55 112 0.0 1.0 0.00 0.00 0.00 82 1033.0
20260502063026 56 111 0.0 0.0 0.00 0.00 0.00 80 1032.9
20260502061519 57 99 0.0 0.0 0.00 0.00 0.00 78 1032.7
20260502060021 58 99 0.0 0.0 0.00 0.00 0.00 76 1032.5
20260502054524 59 98 0.0 1.0 0.00 0.00 0.00 74 1032.4
20260502053015 61 99 0.0 1.0 0.00 0.00 0.00 70 1032.3
20260502051514 62 98 0.0 1.0 0.00 0.00 0.00 67 1032.3
20260502050013 65 111 1.0 2.0 0.00 0.00 0.00 63 1032.3
20260502044514 66 95 0.0 2.0 0.00 0.00 0.00 62 1032.4
20260502043010 66 128 0.0 2.0 0.00 0.00 0.00 61 1032.4
20260502041507 67 11 0.0 2.0 0.00 0.00 0.00 61 1032.4
20260502040008 67 119 1.0 3.0 0.00 0.00 0.00 60 1032.4
20260502034504 67 187 1.0 2.0 0.00 0.00 0.00 60 1032.4
20260502033002 67 70 1.0 3.0 0.00 0.00 0.00 60 1032.5
20260502031600 67 122 1.0 4.0 0.00 0.00 0.00 60 1032.5
20260502030101 67 99 1.0 3.0 0.00 0.00 0.00 59 1032.7
20260502024557 67 155 1.0 4.0 0.00 0.00 0.00 61 1032.8
20260502023156 67 100 0.0 6.0 0.00 0.00 0.00 61 1032.8
20260502021553 67 109 1.0 3.0 0.00 0.00 0.00 61 1033.0
20260502020052 67 108 1.0 4.0 0.00 0.00 0.00 59 1033.2
20260502014550 67 101 0.0 4.0 0.00 0.00 0.00 61 1033.4
20260502013049 67 94 1.0 4.0 0.00 0.00 0.00 61 1033.5
20260502011543 67 91 2.0 5.0 0.00 0.00 0.00 60 1033.7
20260502010047 66 77 2.0 5.0 0.00 0.00 0.00 61 1033.9
20260502004552 65 122 1.0 4.0 0.00 0.00 0.00 64 1034.1
20260502003032 64 98 1.0 4.0 0.00 0.00 0.00 65 1034.3
20260502001528 64 134 0.0 3.0 0.00 0.00 0.00 64 1034.6
20260502000041 65 60 1.0 2.0 0.00 0.00 0.00 62 1034.9
20260501234529 65 90 0.0 2.0 0.00 0.00 0.00 64 1035.2
20260501233023 65 112 1.0 3.0 0.00 0.00 0.00 65 1035.3
20260501231534 64 135 0.0 1.0 0.00 0.00 0.00 64 1035.5
20260501230019 63 136 0.0 2.0 0.00 0.00 0.00 67 1035.5
20260501224515 63 131 0.0 2.0 0.00 0.00 0.00 72 1035.5
20260501223011 62 149 0.0 2.0 0.00 0.00 0.00 73 1035.6
20260501221507 61 158 0.0 3.0 0.00 0.00 0.00 74 1035.7
20260501220005 59 153 0.0 2.0 0.00 0.00 0.00 75 1035.8
20260501214502 59 149 0.0 2.0 0.00 0.00 0.00 77 1035.8
20260501213112 58 150 0.0 1.0 0.00 0.00 0.00 78 1035.9
20260501211554 57 146 0.0 3.0 0.00 0.00 0.00 79 1035.9
20260501210052 56 150 0.0 3.0 0.00 0.00 0.00 81 1035.9
20260501204551 55 143 1.0 3.0 0.00 0.00 0.00 82 1035.9
20260501203046 54 149 1.0 4.0 0.00 0.00 0.00 83 1035.8
20260501201544 54 135 0.0 3.0 0.00 0.00 0.00 83 1035.8
20260501200043 53 159 0.0 3.0 0.00 0.00 0.00 84 1035.7
20260501194543 52 151 0.0 3.0 0.00 0.00 0.00 85 1035.5
20260501193038 52 144 0.0 3.0 0.00 0.00 0.00 85 1035.4
20260501191537 52 143 1.0 2.0 0.00 0.00 0.00 86 1035.4
20260501190037 51 153 0.0 3.0 0.00 0.00 0.00 86 1035.4
20260501184535 51 145 0.0 2.0 0.00 0.00 0.00 86 1035.3
20260501183038 51 139 0.0 3.0 0.00 0.00 0.00 87 1035.3
20260501181533 50 146 0.0 2.0 0.00 0.00 0.00 88 1035.3
20260501180038 50 146 0.0 2.0 0.00 0.00 0.00 89 1035.3
20260501174536 50 147 0.0 1.0 0.00 0.00 0.00 89 1035.3
20260501173030 49 146 0.0 1.0 0.00 0.00 0.00 89 1035.3
20260501171529 50 146 0.0 1.0 0.00 0.00 0.00 88 1035.2
20260501170026 50 146 0.0 2.0 0.00 0.00 0.00 87 1035.2
20260501164537 50 146 0.0 1.0 0.00 0.00 0.00 87 1035.3
20260501163024 50 146 0.0 1.0 0.00 0.00 0.00 86 1035.3
20260501161522 50 146 0.0 2.0 0.00 0.00 0.00 86 1035.2
20260501160020 51 142 0.0 2.0 0.00 0.00 0.00 85 1035.3
20260501154529 52 143 0.0 2.0 0.00 0.00 0.00 84 1035.3
20260501153027 52 148 0.0 2.0 0.00 0.00 0.00 84 1035.3